カタログに戻る

COSMOS 2251 DEB

運用中LEO
NORAD 36420·DEBRIS·🇷🇺 Russia

打ち上げ Jun 16, 1993 から Plesetsk Cosmodrome

Loading…

次のパス (今後24時間)

TLE

最新Source: Space-Track

元期: Sep 14, 2026, 09:35 UTC

1 36420U 93036AZT 26257.39969292  .00000210  00000-0  79445-4 0  9993
2 36420  74.0366 128.6364 0018014 156.1863  19.2651 14.37104083889962

AllMySatでCOSMOS 2251 DEBをリアルタイム追跡

Download on the App Store